Regional Weather Roundup
Issued by NWS

Home | Current Version | Previous Version | Graphics & Text | Print | Product List | Glossary On
Versions: 1 2 3 4 5 6 7 8 9 10 11 12 13 14 15 16 17 18 19 20 21 22 23 24 25 26 27 28 29 30 31 32 33 34 35 36 37 38 39 40 41 42 43 44 45 46 47 48 49 50
000
ASUS45 KPSR 251810
RWRAZ

ARIZONA REGIONAL HOURLY WEATHER ROUNDUP
NATIONAL WEATHER SERVICE PHOENIX AZ
1100 AM MST THU DEC 25 2014

NOTE: FAIR INDICATES FEW OR NO CLOUDS BELOW 12,000 FEET WITH NO
SIGNIFICANT WEATHER AND/OR OBSTRUCTIONS TO VISIBILITY.

AZZ001>003-036-251900-
NORTHWEST ARIZONA

CITY           SKY/WX    TMP DP  RH WIND       PRES   REMARKS
BULLHEAD CITY  SUNNY     57  23  26 N20       29.82S
KINGMAN        CLOUDY    48  21  34 N20G29    29.79R
6HR MIN TEMP:  43; 6HR MAX TEMP:  48;

$$

AZZ004>008-015-016-018-251900-
NORTH CENTRAL ARIZONA

CITY           SKY/WX    TMP DP  RH WIND       PRES   REMARKS
GRAND CANYON   CLOUDY    31  23  72 W9        29.66F WCI  23
6HR MIN TEMP:  27; 6HR MAX TEMP:  32; 6HR PCP: TRACE;

PRESCOTT       MOSUNNY   43  21  41 SW20      29.74R
6HR MIN TEMP:  37; 6HR MAX TEMP:  43;

FLAGSTAFF      SNOW      27  22  81 SW14G21   29.69S VSB 1/2 WCI  16
6HR MIN TEMP:  27; 6HR MAX TEMP:  31; 6HR PCP:  0.02;

PAYSON         CLOUDY    41  18  38 SW7       29.76F
PAGE           PTSUNNY   43  19  38 W14G23    29.61R
6HR MIN TEMP:  35; 6HR MAX TEMP:  45;

$$

AZZ009>014-017-251900-
NORTHEAST ARIZONA

CITY           SKY/WX    TMP DP  RH WIND       PRES   REMARKS
WINSLOW        PTSUNNY   48  22  35 SW20G31   29.69R
6HR MIN TEMP:  38; 6HR MAX TEMP:  49;

SAINT JOHNS    PTSUNNY   47  14  26 SW25G35   29.69R
6HR MIN TEMP:  41; 6HR MAX TEMP:  49;

WINDOW ROCK    CLOUDY    37  18  46 SW17G29   29.67S WCI  27
6HR MIN TEMP:  34; 6HR MAX TEMP:  37;

SHOW LOW       MOSUNNY   41   9  26 SW35G44   29.69S
$$

AZZ023-251900-
GREATER PHOENIX AREA

CITY           SKY/WX    TMP DP  RH WIND       PRES   REMARKS
PHOENIX        MOSUNNY   59  28  30 SW3       29.75R
6HR MIN TEMP:  45; 6HR MAX TEMP:  59;

BUCKEYE          N/A     55  25  30 W6        29.79R
GLENDALE       MOSUNNY   55  32  41 VRB3      29.77S
LUKE AFB       MOSUNNY   56  30  36 VRB5      29.75S
6HR MIN TEMP:  40; 6HR MAX TEMP:  56;

DEER VALLEY    CLOUDY    55  26  32 CALM      29.75R
6HR MIN TEMP:  42; 6HR MAX TEMP:  56;

SCOTTSDALE     PTSUNNY   59  23  25 VRB5      29.76R
6HR MIN TEMP:  44; 6HR MAX TEMP:  59;

CHANDLER       MOSUNNY   55  28  35 VRB3      29.76R
$$

AZZ027-028-251900-
SOUTHWEST MARICOPA COUNTY AND PINAL COUNTY

CITY           SKY/WX    TMP DP  RH WIND       PRES   REMARKS
CASA GRANDE    SUNNY     57  25  28 CALM      29.77R
6HR MIN TEMP:  43; 6HR MAX TEMP:  57;

GILA BEND      FAIR      60  26  27 W3        29.79R
6HR MIN TEMP:  41; 6HR MAX TEMP:  60;

$$

AZZ503-504-507>509-251900-
SOUTHEAST ARIZONA

CITY           SKY/WX    TMP DP  RH WIND       PRES   REMARKS
TUCSON         SUNNY     67  16  14 SW21G31   29.76S
6HR MIN TEMP:  50; 6HR MAX TEMP:  67;

DAVIS-MONTHAN  SUNNY     65  16  15 SW15G26   29.74F
6HR MIN TEMP:  47; 6HR MAX TEMP:  65;

RYAN FIELD       N/A     70  25  18 S20G32    29.75S
NOGALES        MOSUNNY   63  12  13 S18G28    29.82F
6HR MIN TEMP:  43; 6HR MAX TEMP:  63;

SIERRA VISTA   MOSUNNY   60  14  16 SW30G41   29.78F
6HR MIN TEMP:  51; 6HR MAX TEMP:  60;

DOUGLAS        MOSUNNY   61   6  11 S21G28    29.84F
6HR MIN TEMP:  40; 6HR MAX TEMP:  61;

SAFFORD        MOSUNNY   59  12  15 E8        29.74F
6HR MIN TEMP:  31; 6HR MAX TEMP:  59;

$$

AZZ020-021-025-026-031-251900-
SOUTHWEST ARIZONA

CITY           SKY/WX    TMP DP  RH WIND       PRES   REMARKS
YUMA           MOSUNNY  N/A N/A N/A N17G29    29.81R
$$

CAZ031-033-041-043-047-048-061-251900-
SOUTHERN CALIFORNIA

CITY           SKY/WX    TMP DP  RH WIND       PRES   REMARKS
DOWNTOWN L.A.  SUNNY     61  27  27 VRB3      29.88R
6HR MIN TEMP:  54; 6HR MAX TEMP:  61;

L.A. AIRPORT   MOSUNNY   59  26  28 N17G24    29.88R
6HR MIN TEMP:  54; 6HR MAX TEMP:  59;

SAN DIEGO      PTSUNNY   65  45  48 CALM      29.88R
6HR MIN TEMP:  60; 6HR MAX TEMP:  65;

BURBANK        SUNNY     57  27  31 N14G22    29.90S
6HR MIN TEMP:  51; 6HR MAX TEMP:  57;

ONTARIO        MOSUNNY   57  34  41 SW8       29.86R
6HR MIN TEMP:  49; 6HR MAX TEMP:  59;

RIVERSIDE      MOSUNNY   60  22  23 NE14G24   29.86S
6HR MIN TEMP:  49; 6HR MAX TEMP:  60;

PALM SPRINGS   MOSUNNY   64  18  17 N8G20     29.85R
6HR MIN TEMP:  50; 6HR MAX TEMP:  64;

EL CENTRO NAS  CLOUDY    64  38  38 NE8       29.82R
6HR MIN TEMP:  57; 6HR MAX TEMP:  67;

IMPERIAL       CLOUDY    64  37  36 NE8       29.81R
6HR MIN TEMP:  55; 6HR MAX TEMP:  66;

BLYTHE         PTSUNNY   61  25  25 NW23G32   29.82R
6HR MIN TEMP:  46; 6HR MAX TEMP:  61;

NEEDLES        SUNNY     60  17  18 N16G23    29.83R
6HR MIN TEMP:  48; 6HR MAX TEMP:  60;

$$

NVZ020-UTZ003-251900-
SOUTHERN NEVADA-UTAH

CITY           SKY/WX    TMP DP  RH WIND       PRES   REMARKS
LAS VEGAS      MOSUNNY   50  10  20 NW18G32   29.81R
6HR MIN TEMP:  47; 6HR MAX TEMP:  51;

SALT LAKE CITY LGT SNOW  29  24  82 W12       29.67R WCI  19
6HR MIN TEMP:  28; 6HR MAX TEMP:  33; 6HR PCP:  0.01;

$$

NMZ009-TXZ055-251900-
NEW MEXICO-WEST TEXAS

CITY           SKY/WX    TMP DP  RH WIND       PRES   REMARKS
ALBUQUERQUE    PTSUNNY   44  10  25 S12       29.73F
6HR MIN TEMP:  30; 6HR MAX TEMP:  44;

EL PASO        CLOUDY    47  12  24 SE9       29.82F
6HR MIN TEMP:  34; 6HR MAX TEMP:  47;

$$


........................KEY........................
SKY/WX - SKY CONDITION/WEATHER
TMP    - TEMPERATURE IN FAHRENHEIT
DP     - DEW POINT IN FAHRENHEIT
RH     - RELATIVE HUMIDITY IN PERCENT
WIND   - DIRECTION AND SPEED IN MILES PER HOUR (MPH)
VRB    - VARIABLE WIND DIRECTION
PRES   - MEAN SEA LEVEL PRESSURE IN INCHES OF MERCURY
         F - FALLING PRESSURE   R - RISING PRESSURE
         S - STEADY PRESSURE
VSB    - VISIBILITY IN MILES
HX     - HEAT INDEX IN FAHRENHEIT
WCI    - WIND CHILL INDEX IN FAHRENHEIT
TC     - TEMPERATURE IN CELSIUS WHICH IS ALSO KNOWN AS
         TEMPERATURE IN CENTIGRADE
AFB    - AIR FORCE BASE
         LUKE AFB IS LUKE AIR FORCE BASE
         DAVIS-MONTHAN IS DAVIS-MONTHAN AIR FORCE BASE
NAS    - NAVAL AIR STATION
         EL CENTRO NAS IS EL CENTRO NAVAL AIR STATION
N/A    - NOT AVAILABLE



USA.gov is the U.S. government's official web portal to all federal, state and local government web resources and services.